Flag for Austria Weather past 2 weeks in Bruck an der Mur, Styria, Austria

Now
50 °F

Passing clouds.


Feels Like: 46 °F
Forecast: 33 / 64 °F
Wind: 12 mph from Northeast

Location: Zeltweg


UV Index: 0 (Low)

Visibility: 15 mi


Pressure: 29.77 "Hg

Humidity: 58%

Dew point: 36 °F

Location of Bruck an der MurLocation

Historic Weather in Bruck an der Mur

°F

Bruck an der Mur temperature yesterday

Maximum temperature yesterday: 63 °F (at 3:50 PM)
Minimum temperature yesterday: 25 °F (at 5:50 AM)
Average temperature yesterday: 50 °F

Past Weeks' High & Low Weather Summary

 TemperatureHumidityPressure
High72 °F (Apr 8, 2:50 PM)100% (Apr 7, 7:20 AM)30.24 "Hg (Apr 7, 7:20 AM)
Low25 °F (Apr 18, 5:50 AM)20% (Apr 18, 1:50 PM)29.68 "Hg (Apr 18, 4:20 PM)
Average49 °F60%30.00 "Hg
* Reported Apr 3 10:50 PM — Apr 18 10:50 PM, Bruck an der Mur, Weather by CustomWeather, © 2014

Note: Actual official high and low records may vary slightly from our data, if they occured in-between our weather recording intervals... More about our weather records

Advertising

Historic Weather Conditions — Data for Previous 24 hours

 ConditionsComfort  
Time TempWeatherWind HumidityBarometerVisibility
10:50 PM
Apr 18
50 °FPassing clouds.12 mph58%29.77 "Hg16 mi
9:50 PM50 °FPassing clouds.10 mph54%29.74 "Hg16 mi
8:50 PM52 °FPartly sunny.7 mph41%29.74 "Hg19 mi
7:50 PM54 °FBroken clouds.7 mph38%29.71 "Hg22 mi
7:20 PM55 °FPartly sunny.7 mph36%29.71 "Hg22 mi
6:50 PM57 °FPartly sunny.8 mph29%29.71 "Hg22 mi
6:20 PM57 °FPartly sunny.7 mph29%29.71 "Hg25 mi
5:50 PM57 °FPartly sunny.9 mph27%29.68 "Hg25 mi
5:20 PM59 °FBroken clouds.9 mph25%29.68 "Hg25 mi
4:50 PM61 °FBroken clouds.12 mph23%29.68 "Hg25 mi
4:20 PM61 °FBroken clouds.14 mph23%29.68 "Hg25 mi
3:50 PM63 °FBroken clouds.13 mph22%29.71 "Hg25 mi
3:20 PM61 °FBroken clouds.5 mph20%29.71 "Hg25 mi
2:50 PM61 °FBroken clouds.3 mph22%29.71 "Hg25 mi
2:20 PM61 °FBroken clouds.3 mph20%29.74 "Hg25 mi
1:50 PM59 °FBroken clouds.2 mph20%29.74 "Hg25 mi
1:20 PM59 °FBroken clouds.3 mph21%29.74 "Hg25 mi
12:50 PM57 °FBroken clouds.2 mph23%29.77 "Hg31 mi
12:20 PM55 °FBroken clouds.3 mph28%29.77 "Hg31 mi
11:50 AM52 °FBroken clouds.2 mph35%29.80 "Hg31 mi
11:20 AM50 °FBroken clouds.1 mph40%29.80 "Hg31 mi
10:50 AM46 °FBroken clouds.2 mph50%29.83 "Hg31 mi
10:20 AM45 °FPartly sunny.2 mph49%29.83 "Hg31 mi
9:50 AM41 °FPartly sunny.2 mph61%29.86 "Hg31 mi
9:20 AM37 °FPartly sunny.1 mph65%29.86 "Hg31 mi
8:50 AM37 °FPartly sunny.1 mph65%29.86 "Hg31 mi
8:20 AM34 °FPartly sunny.1 mph75%29.86 "Hg31 mi
7:50 AM30 °FPartly sunny.1 mph86%29.89 "Hg31 mi
7:20 AM28 °FPartly sunny.1 mph86%29.89 "Hg31 mi
6:50 AM27 °FPassing clouds.No wind93%29.89 "Hg31 mi
5:50 AM25 °FPassing clouds.No wind86%29.92 "Hg25 mi
Weather by CustomWeather, © 2014

See weather overview